C/2023 Q1 ( PanSTARRS )

Japanese version
Home page
Updated on May 13, 2024

---------------------------------------------------------------------

* Profile

Discovery Date August 20, 2023
Magnitude 22.0 mag
Discoverer Pan-STARRS 1 telescope (Haleakala)

* Pictures

* Orbital Elements

Epoch 2024 Mar. 31.0 TT = JDT 2460400.5
T 2024 Dec. 1.22345 TT                                  Rudenko
q   2.5755906            (2000.0)            P               Q
z  -0.0019411      Peri.   84.41028     -0.00280945     -0.99722659
 +/-0.0000013      Node     7.15584     +0.50158264     -0.06574564
e   1.0049994      Incl.   36.65815     +0.86510517     +0.03488040
>From 102 observations 2023 July 25-2024 Jan. 31, mean residual 0".3.

* Finding Charts

* Magnitudes Graph

        m1 = 9.5 + 5 log d + 10.0 log r

---------------------------------------------------------------------

The orbital elements are published on M.P.E.C. 2024-D33.
The charts are made with StellaNavigator Ver.11 (AstroArts).
The magnitudes graphs are made with Comet for Windows.

---------------------------------------------------------------------

Copyright(C) Seiichi Yoshida (comet@aerith.net). All rights reserved.